Miscellaneous Local Product
Issued by NWS North Platte, NE

Home | Current Version | Previous Version | Graphics & Text | Print | Product List | Glossary On
Versions: 1 2 3 4 5 6 7 8 9 10 11 12 13 14 15 16 17 18 19 20 21 22 23 24 25 26 27 28 29 30 31 32 33 34 35 36 37 38 39 40 41 42 43 44 45 46 47 48 49 50
122
AXUS43 KLBF 251510
MISLBF


WESTERN AND NORTH CENTRAL NEBRASKA HOURLY WEATHER ROUNDUP
NATIONAL WEATHER SERVICE NORTH PLATTE NE
1000 AM CDT SAT MAR 25 2017

NOTE: "FAIR" INDICATES FEW OR NO CLOUDS BELOW 12,000 FEET WITH NO
SIGNIFICANT WEATHER AND/OR OBSTRUCTIONS TO VISIBILITY.

NOTE: STATIONS NOT REPORTING VARIABLES SUCH AS SKY/WEATHER OR
PRESSURE ARE PROVIDED BY RAWS AND APRS NETWORKS AND ARE NOT UNDER
NATIONAL WEATHER SERVICE QUALITY CONTROL.

...OBSERVATIONS IN AND NEAR THE EASTERN PANHANDLE OF NEBRASKA...

CITY           SKY/WX    TMP DP  RH WIND       PRES   REMARKS
PINE RIDGE     SUNNY     49  33  54 S17       29.98F
CHADRON        CLOUDY    52  30  43 S18       29.96F
ALLIANCE       CLOUDY    46  35  65 SW12      30.02S
SIDNEY         SUNNY     45  35  68 SW12      30.05S
CRESCENT LAKE    N/A     44  37  77 S3          N/A
$$

...OBSERVATIONS IN NORTHERN NEBRASKA AND FAR SOUTHERN SOUTH DAKOTA...

CITY           SKY/WX    TMP DP  RH WIND       PRES   REMARKS
WINNER         CLOUDY    34  32  92 SE18      30.07F FOG     WCI  23
VALENTINE      FOG       30  29  96 CALM      30.06F VSB 1/4
THEDFORD       CLOUDY    33  32  94 NE3       30.07S
AINSWORTH      FOG       30  30 100 SE3       30.07F VSB 1/4
O`NEILL        FOG       34  34 100 NE7       30.08S VSB<1/4 WCI  28
ORD            CLOUDY    36  34  92 N10       30.04F FOG     WCI  28
BROKEN BOW     CLOUDY    34  34 100 N12       30.05S FOG     WCI  25
VALENTINE NWR    N/A     50  31  48 SE3         N/A
HALSEY           N/A     28  28  99 E3          N/A
BUTTE            N/A     31  30  96 CALM        N/A
CHAMBERS         N/A     35  34  98 N3          N/A
EWING            N/A     34  34 100 NE5         N/A  WCI  30
$$

...OBSERVATIONS IN SOUTHWEST NEBRASKA AND FAR NORTHEAST COLORADO...

CITY           SKY/WX    TMP DP  RH WIND       PRES   REMARKS
WRAY           FAIR      37  34  87 W6        30.07F WCI  33
HOLYOKE        FAIR      41  34  75 CALM      30.06F
IMPERIAL       SUNNY     41  33  73 N5        30.06F
OGALLALA       SUNNY     37  33  87 W8        30.07S WCI  31
NORTH PLATTE   SUNNY     38  32  79 NW9       30.07S WCI  31
MCCOOK         SUNNY     40  35  83 NW12      30.06R WCI  33
LEXINGTON      CLOUDY    36  34  95 N9        30.05S FOG     WCI  29
STAPLETON        N/A     29  28  95 CALM        N/A
GOTHENBURG       N/A     33  29  86 N5          N/A  WCI  28
CALLAWAY         N/A     29  28  97 N7          N/A  WCI  22
$$

...OBSERVATIONS IN CENTRAL LINCOLN COUNTY AREA...

CITY           SKY/WX    TMP DP  RH WIND       PRES   REMARKS
N.P. AIRPORT   SUNNY     38  32  79 NW9       30.07S WCI  31
N.P. DOWNTOWN    N/A     37  32  82 NW3         N/A
N.P. SOUTHEAST   N/A     37  31  78 N3          N/A
N.P. HILLCREST   N/A     37  33  86 NW3         N/A
$$

...SOME OBSERVATIONS FROM AROUND THE REGION...

CITY           SKY/WX    TMP DP  RH WIND       PRES   REMARKS
DENVER         PTSUNNY   43  31  62 S7        30.04S
LIMON          CLOUDY    37  30  75 CALM      30.08S
ASPEN          CLOUDY    35  20  54 CALM      30.13F
LARAMIE        CLOUDY    42  23  46 SW9       30.04S
GILLETTE       CLOUDY    48  35  60 CALM      29.93R
CHEYENNE       CLOUDY    42  30  62 SW12      30.04R
SCOTTSBLUFF    SUNNY     42  33  70 E9        30.02F
GRAND ISLAND   CLOUDY    35  35 100 N17G25    30.02F FOG     WCI  25
OMAHA          LGT RAIN  41  37  86 N15       29.98S
SIOUX FALLS    CLOUDY    38  35  89 NE15      30.10F WCI  29
PIERRE         CLOUDY    32  32 100 SE12      30.08R FOG     WCI  23
RAPID CITY     CLOUDY    46  31  55 S16       29.94S
BISMARCK       CLOUDY    33  32  96 S20       30.05R FOG     WCI  21
KANSAS CITY    DRIZZLE   51  51 100 N12       29.83R FOG
HILL CITY      CLOUDY    39  37  92 N12       30.03F WCI  32
WICHITA        CLOUDY    44  44 100 N18G26    29.92S
DODGE CITY     CLOUDY    45  38  76 NW18      30.01S
OKLAHOMA CITY  CLOUDY    48  43  82 NW15      29.99R
DALLAS         MOSUNNY   59  44  57 NW17      30.02S
AMARILLO       SUNNY     49  34  56 NW16G24   30.10S
$$




USA.gov is the U.S. government's official web portal to all federal, state and local government web resources and services.